Location: Unspecified
(0.0000°N, 0.0000°E)
Time: 04:22:55
(UTC+00:00)

deb NOAA 5 - Pass Details

Date: 22 February 2026
Orbit: 1470 x 1835 km, 102.5° (Epoch: 10 March)

Event Time Altitude Azimuth Distance (km) Brightness Sun altitude
Rises 20:04:06 0° 148° (SSE) 4,752 ? -27.2°
Enters shadow 20:06:14 - 143° (SE) 4,048 ? -27.7°
Exits shadow 20:23:16 - 5° (N) 3,742 ? -31.9°
Sets 20:25:45 0° 360° (N) 4,569 ? -32.5°
